Estación de Peldehue

Ultimos registro cada 15 minutos 65
Estación Fecha / Hora Temperatura Humedad Lluvia Velocidad Dirección Radiación Presion
65 Peldehue 08-05-2026 16:00 18 30,4 0 0,5 230 331,9 935,9
64 Peldehue 08-05-2026 15:45 17,9 34,7 0 1 234 374,4 936,2
63 Peldehue 08-05-2026 15:30 18,4 31,9 0 1 247 423,1 936,1
62 Peldehue 08-05-2026 15:15 18,2 33,3 0 1 233 451,9 936,3
61 Peldehue 08-05-2026 15:00 18,7 34,7 0 1 232 489,4 936,4
60 Peldehue 08-05-2026 14:45 18,1 30,7 0 1 230 531,9 936,4
59 Peldehue 08-05-2026 14:30 18,2 33,9 0 1 240 559,4 936,3
58 Peldehue 08-05-2026 14:15 17,9 39,1 0 1 233 588,1 936,4
57 Peldehue 08-05-2026 14:00 17,8 36,6 0 1 237 601,9 936,6
56 Peldehue 08-05-2026 13:45 17,8 37,9 0 1 233 628,1 936,7
55 Peldehue 08-05-2026 13:30 18,3 35,6 0 1 234 643,1 936,5
54 Peldehue 08-05-2026 13:15 18,4 26,3 0 0 233 654,4 936,9
53 Peldehue 08-05-2026 13:00 17,3 42,4 0 0 194 663,1 936,9
52 Peldehue 08-05-2026 12:45 17,8 48,8 0 0 195 661,9 937,4
51 Peldehue 08-05-2026 12:30 16,7 49,5 1,8 0 227 658,1 937,4
50 Peldehue 08-05-2026 12:15 16,2 52,2 0 0 229 644,4 937,5
49 Peldehue 08-05-2026 12:00 16 54,9 0 0 227 634,4 937,7
48 Peldehue 08-05-2026 11:45 15,8 55,9 0 0 213 625,6 937,7
47 Peldehue 08-05-2026 11:30 14,9 59,8 0 0 205 594,4 937,7
46 Peldehue 08-05-2026 11:15 15,2 61,4 0 0 209 579,4 937,7
45 Peldehue 08-05-2026 11:00 14 64 0,2 0 211 561,9 938,2
44 Peldehue 08-05-2026 10:45 13,7 64,7 0 0 192 535,6 937,9
43 Peldehue 08-05-2026 10:30 14 63,8 0 0 198 500,6 938,4
42 Peldehue 08-05-2026 10:15 12,2 70,1 0 0 198 466,9 938,6
41 Peldehue 08-05-2026 10:00 11,5 71,8 0 0 191 426,9 938,5
40 Peldehue 08-05-2026 09:45 11,7 72,2 0 0 198 383,1 938,4
39 Peldehue 08-05-2026 09:30 11,4 74,4 0 0 206 341,9 938,4
38 Peldehue 08-05-2026 09:15 10,2 80,3 0 0 209 296,9 938,3
37 Peldehue 08-05-2026 09:00 9,4 80,4 0 0 211 254,4 938,1
36 Peldehue 08-05-2026 08:45 7,9 85,1 0 0 211 208,1 938,4
35 Peldehue 08-05-2026 08:30 6,3 89,1 0 0 215 163,1 938,4
34 Peldehue 08-05-2026 08:15 4,2 93,2 0 0 213 51,9 938,4
33 Peldehue 08-05-2026 08:00 4,9 93,5 0 0 212 20,6 938,3
32 Peldehue 08-05-2026 07:45 4,5 93,3 0 0 212 9,4 938,7
31 Peldehue 08-05-2026 07:30 4,3 92 0 0 212 5,6 938,8
30 Peldehue 08-05-2026 07:15 5,4 92 0 0 212 1,9 939
29 Peldehue 08-05-2026 07:00 5 92,6 0 0 213 0,6 938,9
28 Peldehue 08-05-2026 06:45 4,6 93 0 0 219 0,6 938,9
27 Peldehue 08-05-2026 06:30 4,4 91,7 0 0 216 0,6 939
26 Peldehue 08-05-2026 06:15 5,4 92 0,2 0 212 0,6 938,4
25 Peldehue 08-05-2026 06:00 5,2 92,2 0 0 212 0,6 938,4
24 Peldehue 08-05-2026 05:45 5 92,5 0 0 212 0,6 938,5
23 Peldehue 08-05-2026 05:30 5,1 92,1 0 0 212 0,6 938,2
22 Peldehue 08-05-2026 05:15 5,5 92,2 0 0 212 0,6 938,1
21 Peldehue 08-05-2026 05:00 5,4 92,2 0 0 212 0,6 938
20 Peldehue 08-05-2026 04:45 5,4 90,8 0 0 212 0,6 937,9
19 Peldehue 08-05-2026 04:30 6,1 90,2 0 0 212 0,6 938
18 Peldehue 08-05-2026 04:15 6,5 89 0 0 212 0,6 938,2
17 Peldehue 08-05-2026 04:00 6,5 89,8 0 0 212 0,6 938,4
16 Peldehue 08-05-2026 03:45 6,6 90,1 0 0 212 0,6 938,5
15 Peldehue 08-05-2026 03:30 6,4 90,1 0 0 212 0,6 938,9
14 Peldehue 08-05-2026 03:15 6,5 89,7 0 0 212 0,6 939
13 Peldehue 08-05-2026 03:00 6,7 89,4 0 0 212 0,6 938,8
12 Peldehue 08-05-2026 02:45 6,7 90 0 0 212 0,6 938,9
11 Peldehue 08-05-2026 02:30 7 89,8 0 0 212 0,6 938,9
10 Peldehue 08-05-2026 02:15 7,3 88,3 0 0 212 0,6 939,1
9 Peldehue 08-05-2026 02:00 7,9 88 0 0 212 0,6 939,1
8 Peldehue 08-05-2026 01:45 8,2 88 0,2 0 212 0,6 939,4
7 Peldehue 08-05-2026 01:30 8,4 88,6 0 0 212 0,6 939,4
6 Peldehue 08-05-2026 01:15 9 86,4 0 0 212 0,6 939,8
5 Peldehue 08-05-2026 01:00 9,6 83,8 0 0 212 0,6 939,9
4 Peldehue 08-05-2026 00:45 9,9 83,3 0 0 212 0,6 939,8
3 Peldehue 08-05-2026 00:30 10,2 82,2 0 0 212 0,6 940
2 Peldehue 08-05-2026 00:15 10,3 85,2 0 0 212 0,6 940,3
1 Peldehue 08-05-2026 00:00 10,4 83,7 0 0 212 0,6 940,5